Voltar ao catálogo

SCOUT A R/B

AtivoPO
NORAD 2755·ROCKET BODY·🇺🇸 United States

Lançado Apr 14, 1967 de Vandenberg Space Force Base

Loading…

Próximas Passagens (próximas 24 horas)

TLE

AtualizadoSource: Space-Track

Época: Sep 14, 2026, 21:16 UTC

1 02755U 67034B   26257.88653741 -.00000054  00000-0 -92252-4 0  9998
2 02755  90.2722  58.5900 0027233  91.2722  75.1732 13.54020067934177

Acompanhe SCOUT A R/B em tempo real com AllMySat

Download on the App Store